• In Italy
  • List of Countries
  • For 7 days
  • Water Temperature
  • Satellite Maps
  • Weather Map
  • Weather Widgets
  • user-avatar
    Login

    Hourly Weather Midlothian

    Today, 21 October, Sunday

    Time Temperature Precipitation Wind Pressure Humidity
    00:00 +13°C° 0 mm 6 mps 743 mmHg 95%
    01:00 +13°C° 0 mm 6 mps 743 mmHg 95%
    02:00 +13°C° 0 mm 6 mps 743 mmHg 94%
    03:00 +13°C° 0 mm 6 mps 742 mmHg 94%
    04:00 +13°C° 0 mm 6 mps 742 mmHg 93%
    05:00 +13°C° 0 mm 6 mps 742 mmHg 93%
    06:00 +13°C° 0 mm 6 mps 741 mmHg 92%
    07:00 +13°C° 0.1 mm 6 mps 742 mmHg 92%
    08:00 +12°C° 0.1 mm 7 mps 742 mmHg 91%
    09:00 +12°C° 0.1 mm 7 mps 742 mmHg 90%
    10:00 +11°C° 0.2 mm 7 mps 742 mmHg 88%
    11:00 +9°C° 0.2 mm 6 mps 743 mmHg 86%
    12:00 +8°C° 0.2 mm 6 mps 743 mmHg 84%
    13:00 +8°C° 0 mm 6 mps 744 mmHg 81%
    14:00 +9°C° 0 mm 7 mps 744 mmHg 78%
    15:00 +9°C° 0 mm 7 mps 745 mmHg 75%
    16:00 +8°C° 0 mm 6 mps 745 mmHg 77%
    17:00 +5°C° 0 mm 6 mps 746 mmHg 78%
    18:00 +4°C° 0 mm 6 mps 747 mmHg 79%
    19:00 +4°C° 0 mm 6 mps 747 mmHg 79%
    20:00 +3°C° 0 mm 6 mps 748 mmHg 80%
    21:00 +3°C° 0 mm 6 mps 748 mmHg 80%
    22:00 +3°C° 0 mm 6 mps 749 mmHg 79%
    23:00 +2°C° 0 mm 5 mps 749 mmHg 77%

    Tomorrow, 22 October, Monday

    Time Temperature Precipitation Wind Pressure Humidity
    00:00 +2°C° 0 mm 5 mps 749 mmHg 76%
    01:00 +2°C° 0 mm 5 mps 750 mmHg 77%
    02:00 +1°C° 0 mm 5 mps 750 mmHg 79%
    03:00 +1°C° 0 mm 5 mps 750 mmHg 80%
    04:00 +1°C° 0 mm 5 mps 751 mmHg 80%
    05:00 +1°C° 0 mm 5 mps 751 mmHg 81%
    06:00 +1°C° 0 mm 5 mps 752 mmHg 81%
    07:00 +2°C° 0 mm 6 mps 752 mmHg 80%
    08:00 +3°C° 0 mm 6 mps 752 mmHg 78%
    09:00 +5°C° 0 mm 6 mps 752 mmHg 77%
    10:00 +6°C° 0 mm 7 mps 752 mmHg 74%
    11:00 +6°C° 0 mm 7 mps 752 mmHg 72%
    12:00 +7°C° 0 mm 8 mps 752 mmHg 69%
    13:00 +7°C° 0 mm 9 mps 752 mmHg 71%
    14:00 +7°C° 0 mm 9 mps 751 mmHg 73%
    15:00 +7°C° 0 mm 10 mps 751 mmHg 74%
    16:00 +7°C° 0 mm 10 mps 750 mmHg 76%
    17:00 +7°C° 0 mm 10 mps 750 mmHg 77%
    18:00 +7°C° 0 mm 11 mps 750 mmHg 79%
    19:00 +7°C° 0 mm 11 mps 750 mmHg 78%
    20:00 +7°C° 0 mm 11 mps 749 mmHg 78%
    21:00 +7°C° 0 mm 11 mps 749 mmHg 78%
    22:00 +7°C° 0 mm 11 mps 749 mmHg 79%
    23:00 +7°C° 0 mm 11 mps 748 mmHg 80%

    Day after tomorrow, 23 October, Tuesday

    Time Temperature Precipitation Wind Pressure Humidity
    00:00 +7°C° 0 mm 11 mps 748 mmHg 80%
    01:00 +7°C° 0 mm 11 mps 747 mmHg 80%
    02:00 +7°C° 0 mm 11 mps 747 mmHg 80%
    03:00 +7°C° 0 mm 12 mps 746 mmHg 79%
    04:00 +7°C° 0 mm 12 mps 746 mmHg 79%
    05:00 +8°C° 0 mm 12 mps 746 mmHg 78%
    06:00 +8°C° 0 mm 12 mps 745 mmHg 78%
    07:00 +8°C° 0 mm 12 mps 745 mmHg 78%
    08:00 +9°C° 0 mm 11 mps 745 mmHg 79%
    09:00 +9°C° 0 mm 11 mps 745 mmHg 79%
    10:00 +9°C° 0 mm 11 mps 745 mmHg 81%
    11:00 +11°C° 0 mm 11 mps 745 mmHg 82%
    12:00 +11°C° 0 mm 11 mps 745 mmHg 83%
    13:00 +11°C° 0 mm 10 mps 745 mmHg 84%
    14:00 +11°C° 0 mm 10 mps 745 mmHg 84%
    15:00 +11°C° 0 mm 9 mps 745 mmHg 84%
    16:00 +11°C° 0 mm 9 mps 745 mmHg 85%
    17:00 +11°C° 0 mm 9 mps 745 mmHg 87%
    18:00 +11°C° 0 mm 9 mps 745 mmHg 88%
    19:00 +11°C° 0 mm 9 mps 746 mmHg 87%
    20:00 +11°C° 0 mm 9 mps 746 mmHg 86%
    21:00 +12°C° 0 mm 9 mps 746 mmHg 86%
    22:00 +12°C° 0 mm 9 mps 746 mmHg 86%
    23:00 +12°C° 0 mm 9 mps 746 mmHg 85%

    24 October, Wednesday

    Time Temperature Precipitation Wind Pressure Humidity
    00:00 +12°C° 0 mm 9 mps 746 mmHg 85%
    01:00 +12°C° 0 mm 9 mps 746 mmHg 86%
    02:00 +11°C° 0 mm 8 mps 746 mmHg 86%
    03:00 +11°C° 0 mm 8 mps 747 mmHg 87%
    04:00 +11°C° 0 mm 8 mps 746 mmHg 88%
    05:00 +11°C° 0 mm 7 mps 746 mmHg 88%
    06:00 +10°C° 0 mm 7 mps 746 mmHg 89%
    07:00 +10°C° 0 mm 7 mps 747 mmHg 88%
    08:00 +10°C° 0 mm 7 mps 747 mmHg 87%
    09:00 +10°C° 0 mm 6 mps 747 mmHg 85%
    10:00 +10°C° 0 mm 6 mps 747 mmHg 82%
    11:00 +10°C° 0 mm 7 mps 747 mmHg 79%
    12:00 +10°C° 0 mm 7 mps 747 mmHg 77%
    13:00 +10°C° 0 mm 7 mps 747 mmHg 77%
    14:00 +9°C° 0 mm 7 mps 746 mmHg 77%
    15:00 +9°C° 0 mm 7 mps 746 mmHg 78%
    16:00 +8°C° 0 mm 7 mps 746 mmHg 80%
    17:00 +6°C° 0 mm 7 mps 746 mmHg 83%
    18:00 +5°C° 0 mm 7 mps 746 mmHg 86%
    19:00 +5°C° 0 mm 6 mps 745 mmHg 87%
    20:00 +5°C° 0 mm 6 mps 745 mmHg 88%
    21:00 +5°C° 0 mm 6 mps 745 mmHg 89%
    22:00 +5°C° 0 mm 6 mps 745 mmHg 89%
    23:00 +5°C° 0 mm 6 mps 745 mmHg 89%

    25 October, Thursday

    Time Temperature Precipitation Wind Pressure Humidity
    00:00 +5°C° 0 mm 6 mps 745 mmHg 88%
    01:00 +5°C° 0 mm 6 mps 744 mmHg 88%
    02:00 +5°C° 0 mm 6 mps 744 mmHg 88%
    03:00 +5°C° 0 mm 6 mps 743 mmHg 88%
    04:00 +5°C° 0 mm 6 mps 743 mmHg 88%
    05:00 +5°C° 0 mm 6 mps 743 mmHg 87%
    06:00 +5°C° 0 mm 6 mps 742 mmHg 87%
    07:00 +7°C° 0 mm 6 mps 742 mmHg 85%
    08:00 +7°C° 0 mm 6 mps 742 mmHg 84%
    09:00 +8°C° 0 mm 7 mps 741 mmHg 83%
    10:00 +8°C° 0 mm 7 mps 741 mmHg 81%
    11:00 +8°C° 0 mm 7 mps 740 mmHg 79%
    12:00 +9°C° 0 mm 7 mps 740 mmHg 77%
    13:00 +9°C° 0 mm 7 mps 739 mmHg 78%
    14:00 +8°C° 0 mm 7 mps 739 mmHg 78%
    15:00 +8°C° 0 mm 7 mps 738 mmHg 78%
    16:00 +8°C° 0 mm 7 mps 737 mmHg 81%
    17:00 +6°C° 0 mm 7 mps 737 mmHg 83%
    18:00 +6°C° 0 mm 7 mps 736 mmHg 85%
    19:00 +6°C° 0 mm 7 mps 735 mmHg 86%
    20:00 +6°C° 0 mm 7 mps 735 mmHg 87%
    21:00 +6°C° 0 mm 7 mps 734 mmHg 88%
    22:00 +6°C° 0.2 mm 7 mps 734 mmHg 88%
    23:00 +7°C° 0.2 mm 6 mps 733 mmHg 89%

    26 October, Friday

    Time Temperature Precipitation Wind Pressure Humidity
    00:00 +5°C° 0.2 mm 6 mps 733 mmHg 89%
    01:00 +5°C° 0.7 mm 6 mps 733 mmHg 88%
    02:00 +4°C° 0.7 mm 6 mps 733 mmHg 88%
    03:00 +3°C° 0.7 mm 6 mps 733 mmHg 87%
    04:00 +2°C° 0.1 mm 6 mps 733 mmHg 87%
    05:00 +2°C° 0.1 mm 5 mps 733 mmHg 87%
    06:00 +1°C° 0.1 mm 5 mps 734 mmHg 87%
    07:00 +1°C° 0 mm 5 mps 734 mmHg 85%
    08:00 +2°C° 0 mm 6 mps 734 mmHg 82%
    09:00 +2°C° 0 mm 6 mps 734 mmHg 80%
    10:00 +3°C° 0.1 mm 6 mps 735 mmHg 76%
    11:00 +4°C° 0.1 mm 7 mps 735 mmHg 72%
    12:00 +4°C° 0.1 mm 8 mps 735 mmHg 69%
    13:00 +4°C° 0.1 mm 7 mps 735 mmHg 67%
    14:00 +4°C° 0.1 mm 7 mps 735 mmHg 66%
    15:00 +4°C° 0.1 mm 7 mps 736 mmHg 64%
    16:00 +3°C° 0.1 mm 7 mps 736 mmHg 66%
    17:00 0°C° 0.1 mm 7 mps 736 mmHg 69%
    18:00 -1°C° 0.1 mm 7 mps 736 mmHg 71%
    19:00 -1°C° 0 mm 7 mps 736 mmHg 72%
    20:00 -1°C° 0 mm 7 mps 736 mmHg 73%
    21:00 -2°C° 0 mm 7 mps 736 mmHg 74%
    22:00 -2°C° 0 mm 7 mps 735 mmHg 74%
    23:00 -2°C° 0 mm 7 mps 735 mmHg 74%
    Show more